Погода в Оломоуце

Чехия     49°35′43″N   17°15′16″E
темп.,
°C
ветер,
м/с
пор.,
м/с
влажн.,
%
обл.,
%
осадки,
мм/ч
давл.,
гПа
погр.,
м
13 апреля, вт
вт1323:00+1ссз5999100 5.1 1025340
02:00+1ссз37100100 9.8 1026275
05:00+1с269997 0.9 1026314
08:00+2с3797100 1.1 1026467
11:00+3с6982100 0.1 10271067
14:00+5с6978100 0.6 10261183
17:00+5ссз5976100 0.4 10241217
20:00+3ссз51079100 0.4 1025503
14 апреля, ср
ср1423:00+3ссз3684100 0.0 1025199
02:00+3ссз4980100 0.0 1024294
05:00+2ссз4886100 0.0 1024285
08:00+3ссз4881100 0.0 1024536
11:00+5с4573100 0.3 1024877
14:00+7ссз7747100 0.8 10231912
17:00+7ссз6750100 0.1 10221771
20:00+4ссз3769100 0.1 1023199
15 апреля, чт
чт1523:00+2ссз3776100 0.0 1023208
02:00+2ссз2584100 0.0 1023157
05:00+2ссз3782100 0.0 1022255
08:00+3сз2478100 0.0 1023455
11:00+6сз5758100 0.1 10221501
14:00+6сз7858100 0.1 10221376
17:00+6сз6858100 0.0 10221312
20:00+3сз5977100 0.0 1022512
16 апреля, пт
пт1623:00+1сз498764 0.0 1022320
02:000сз3590100 0.0 1022224
05:00+1сз3578100 0.0 1022856
08:00+2сз347698 0.0 1022628
11:00+5сз2263100 0.0 10221135
14:00+6сз3365100 0.0 10221053
17:00+7ссз2365100 0.0 1021967
20:00+5ссз258199 0.0 1022259
17 апреля, сб
сб1723:00+4ссз1289100 0.0 1022137
02:00+4ссз2493100 0.1 1021450
05:00+4с2393100 0.1 1021143
08:00+5ссв2587100 0.1 1021498
11:00+6св357998 0.0 1020762
14:00+8всв5575100 0.2 10201017
17:00+8св5771100 0.1 1019993
20:00+5св4991100 0.1 1019658